Regional Weather Roundup
Issued by NWS Huntsville, AL

Home | Current Version | Previous Version | Text Only | Print | Product List | Glossary On
Versions: 1 2 3 4 5 6 7 8 9 10 11 12 13 14 15 16 17 18 19 20 21 22 23 24 25 26 27 28
000
ASUS44 KHUN 241010
RWRHUN

WEATHER ROUNDUP FOR THE TENNESSEE VALLEY
NATIONAL WEATHER SERVICE HUNTSVILLE AL
500 AM CDT THU MAY 24 2018

ALZ001>004-241100-
NORTHWEST ALABAMA

CITY           SKY/WX    TMP DP  RH WIND       PRES   REMARKS
COURTLAND HCN    N/A     68 N/A N/A CALM        N/A
RUSSELLVILLE     N/A     64 N/A N/A MISG        N/A
SHOALS AIRPORT FAIR      70  67  90 CALM      30.08R
SHOALS TVA RES   N/A     68 N/A N/A MISG        N/A
$$

ALZ005>007-016-241100-
NORTH CENTRAL ALABAMA

CITY           SKY/WX    TMP DP  RH WIND       PRES   REMARKS
CULLMAN AG STN   N/A     64 N/A N/A CALM        N/A
DECATUR AP     FAIR      67  66  97 CALM      30.07S
HUNTSVILLE AP  FAIR      70  68  93 CALM      30.07R
MERIDIANVILLE  CLEAR     67  65  96 CALM      30.09R
REDSTONE ARSN  FAIR      68  64  89 NE3       30.06R
VINEMONT AP      N/A     65  64  97 CALM      30.11R
$$

ALZ008>010-241100-
NORTHEAST ALABAMA

CITY           SKY/WX    TMP DP  RH WIND       PRES   REMARKS
ALBERTVILLE    FAIR      68  68 100 N3        30.08R FOG
FORT PAYNE     FAIR      64  63  94 CALM      30.07S
SCOTTSBORO AP  FAIR      68  68 100 CALM      30.08S
SCOTTSBORO HCN   N/A     66 N/A N/A MISG        N/A
VALLEY HEAD      N/A     64 N/A N/A MISG        N/A
$$

TNZ076-096-097-241100-
SOUTHEASTERN MIDDLE TENNESSEE

CITY           SKY/WX    TMP DP  RH WIND       PRES   REMARKS
TULLAHOMA      CLEAR     63  61  94 CALM      30.10R
WINCHESTER     CLEAR     64  63  94 CALM      30.09R
$$

...SURROUNDING SITES...

CITY           SKY/WX    TMP DP  RH WIND       PRES   REMARKS
ATLANTA        FOG       70  68  93 E5        30.07S VSB 1/2
ANNISTON       FAIR      68  66  93 CALM      30.06R FOG
BIRMINGHAM     MOCLDY    70  69  97 CALM      30.09R
CHATTANOOGA    MOCLDY    69  65  86 CALM      30.08R
CORINTH        FAIR      70  68  94 CALM      30.07R FOG
DALTON         FAIR      64  64 100 CALM      30.09R
GADSDEN        FAIR      67  67 100 CALM      30.07R
GOLDEN TRNGL   FAIR      68  67  96 CALM      30.07R
HALEYVILLE     FAIR      67  32  27 CALM      30.10S
JACKSON TN     FAIR      67  66  97 CALM      30.08S FOG
MEMPHIS        MOCLDY    72  71  97 W3        30.08R
NASHVILLE      FAIR      67  64  90 CALM      30.10R
ROME           FAIR      68  67  96 CALM      30.06S
SAVANNAH       CLOUDY    66  64  94 CALM      30.08R
SELMER         PTCLDY    66  64  94 CALM      30.08R
TUPELO         FAIR     N/A N/A N/A CALM      30.06S
TUSCALOOSA     FOG       71  69  93 CALM      30.06S VSB 1/2
$$

...GULF COAST WEATHER...

CITY           SKY/WX    TMP DP  RH WIND       PRES   REMARKS
GULFPORT       FAIR      71  69  93 CALM      30.04R
PASCAGOULA     FAIR      70  67  90 CALM      30.05R
MOBILE         FAIR      70  69  97 CALM      30.07R
GULF SHORES    FAIR      68  68 100 N6        30.05S
PENSACOLA      MOCLDY    70  66  87 NE3       30.05
DESTIN         FAIR      74  71  91 NE5       30.05R
PANAMA CITY    PTCLDY    72  72 100 CALM      30.06R
APPALACHICOLA  FAIR      71  71 100 CALM      30.05R
$$





USA.gov is the U.S. government's official web portal to all federal, state and local government web resources and services.